Regional Weather Roundup
Issued by NWS

Home | Current Version | Previous Version | Text Only | Print | Product List | Glossary On
Versions: 1 2 3 4 5 6 7 8 9 10 11 12 13 14 15 16 17 18 19 20 21 22 23 24 25 26 27 28 29 30 31 32 33 34 35 36 37 38 39 40 41 42 43 44 45 46 47 48 49 50
000
ASUS43 KMKX 270600
RWRWI

WISCONSIN REGIONAL WEATHER ROUNDUP
NATIONAL WEATHER SERVICE MILWAUKEE/SULLIVAN WI
1200 AM CST THU NOV 27 2014

NOTE: "FAIR" INDICATES FEW OR NO CLOUDS BELOW 12,000 FEET WITH NO
SIGNIFICANT WEATHER AND/OR OBSTRUCTIONS TO VISIBILITY.

WIZ001-002-006>008-014>016-023>028-270700-
NORTHWEST WISCONSIN

CITY           SKY/WX    TMP DP  RH WIND       PRES   REMARKS
SUPERIOR ARPT  PTCLDY     2  -4  75 N5        30.44R WCI  -7
ASHLAND        CLOUDY    10   5  80 NW7       30.37R WCI  -1
6HR MIN TEMP:  10; 6HR MAX TEMP:  20; 6HR PCP: TRACE;

HAYWARD        CLEAR      7   2  80 N5        30.34R WCI  -2
6HR MIN TEMP:   7; 6HR MAX TEMP:  19; 6HR PCP: TRACE;

SIREN          CLEAR      7  -4  61 N12       30.40R WCI  -9
CUMBERLAND     PTCLDY    10   1  67 N13G18    30.33R WCI  -5
RICE LAKE      CLOUDY    13   7  75 NW12      30.34R WCI  -1
CHETEK         LGT SNOW  14   8  78 MISG      30.33R
LADYSMITH      LGT SNOW  15  11  81 NW13      30.30R WCI   2
EAU CLAIRE     CLOUDY    17  10  74 N10       30.32R WCI   5
6HR MIN TEMP:  17; 6HR MAX TEMP:  25; 6HR PCP: TRACE;

MENOMONIE      LGT SNOW  18  12  76 N14       30.33R WCI   5
NEW RICHMOND   CLEAR     11   2  65 N9        30.36R WCI  -1
OSCEOLA        CLEAR     11  -1  57 N13       30.41R WCI  -4
$$

WIZ003>005-009-010-017-018-270700-
NORTH CENTRAL WISCONSIN

CITY           SKY/WX    TMP DP  RH WIND       PRES   REMARKS
MANITOWISH WTR CLOUDY    15  11  87 N7        30.21R WCI   5
ARBOR VITAE    FLURRIES  17  14  88 N3        30.20R
WOODRUFF       FLURRIES  17  14  88 N3        30.20R
RHINELANDER    CLOUDY    15  11  83 VRB6      30.19R WCI   6
6HR MIN TEMP:  15; 6HR MAX TEMP:  21; 6HR PCP: TRACE;

EAGLE RIVER    LGT SNOW  16  12  82 N5        30.18R WCI   9
LAND O LAKES   LGT SNOW  16  12  87 N7        30.20R WCI   6
PHILLIPS       LGT SNOW  14  10  83 NW8G17    30.23R WCI   2
TOMAHAWK       LGT SNOW  17  14  88 NW3       30.20S
MEDFORD        FLURRIES  17  13  84 NW10      30.21R WCI   5
MERRILL        FLURRIES  19  15  85 NW5       30.20R WCI  12
$$

WIZ029-030-035-036-043>047-270700-
CENTRAL WISCONSIN

CITY           SKY/WX    TMP DP  RH WIND       PRES   REMARKS
WAUSAU         CLOUDY    20  15  81 NW7       30.20R WCI  11
6HR MIN TEMP:  20; 6HR MAX TEMP:  24; 6HR PCP: TRACE;

MOSINEE        CLOUDY    21  19  93 NW12      30.21S WCI   9
MARSHFIELD     LGT SNOW  20  14  77 NW10      30.22R WCI   9
6HR MIN TEMP:  19; 6HR MAX TEMP:  24; 6HR PCP: TRACE;

STEVENS POINT  CLOUDY    20  16  83 NW7       30.22R WCI  11
WAUPACA        CLOUDY    26  22  87 NW3       30.21R
WAUTOMA        NOT AVBL
WISC RAPIDS    CLOUDY    22  15  75 NW13      30.24R WCI  10
6HR MIN TEMP:  21; 6HR MAX TEMP:  24; 6HR PCP: TRACE;

CAMP DOUGLAS   MIX PCPN  23  23 100 NW8       30.24R WCI  14
$$

WIZ011>013-019>022-031-037>040-048>050-270700-
NORTHEAST WISCONSIN

CITY           SKY/WX    TMP DP  RH WIND       PRES   REMARKS
ANTIGO         CLOUDY    19  15  82 NW10      30.17R WCI   7
SHAWANO        CLOUDY    25  21  86 W3        30.20S
OCONTO         CLOUDY    22  20  92 CALM      30.19R
STURGEON BAY   CLOUDY    27  19  74 N7        30.17S WCI  19
6HR MIN TEMP:  21; 6HR MAX TEMP:  27;

GREEN BAY      LGT SNOW  24  20  84 NW6       30.20R FOG     WCI  17
6HR MIN TEMP:  15; 6HR MAX TEMP:  24; 6HR PCP: TRACE;

MANITOWOC      NOT AVBL
APPLETON       LGT SNOW  21  21 100 W8        30.19R WCI  12
CLINTONVILLE   CLOUDY    23  21  93 NW6       30.20R WCI  16
OSHKOSH        LGT SNOW  21  18  88 MISG      30.20R FOG
6HR MIN TEMP:  18; 6HR MAX TEMP:  22; 6HR PCP: TRACE;

$$

WIZ032>034-041-042-053>061-270700-
SOUTHWEST WISCONSIN

CITY           SKY/WX    TMP DP  RH WIND       PRES   REMARKS
LA CROSSE      CLOUDY    25  18  74 NW9       30.30R WCI  15
6HR MIN TEMP:  20; 6HR MAX TEMP:  26; 6HR PCP:  0.01;

SPARTA         MOCLDY    24  19  84 NW10      30.28R WCI  13
VIROQUA        CLOUDY    23  21  94 NW10      30.24R WCI  12
BOSCOBEL       CLOUDY    22  18  85 CALM      30.29R
6HR MIN TEMP:  20; 6HR MAX TEMP:  23; 6HR PCP: TRACE;

PRAIRIE DU CHI CLOUDY    25  20  82 NW7       30.29R WCI  17
PLATTEVILLE    MOCLDY    23  21  91 CALM      30.25R
$$

WIZ056-057-062-063-064-067-068-270700-
SOUTH CENTRAL WISCONSIN

CITY           SKY/WX    TMP DP  RH WIND       PRES   REMARKS
REEDSBURG      CLOUDY    20  19  94 NW3       30.24R
BARABOO/DELLS  LGT SNOW  21  19  94 NW3       30.22R
LONE ROCK      CLOUDY    23  17  78 W6        30.26R HAZE    WCI  16
MINERAL POINT  LGT SNOW  23  21  93 NW5       30.22R WCI  17
MADISON        CLOUDY    19  16  88 CALM      30.23R FOG
6HR MIN TEMP:  14; 6HR MAX TEMP:  19;

MIDDLETON      CLOUDY    20  18  92 W7        30.22S WCI  11
WATERTOWN      MOCLDY    13  12  96 CALM      30.21R FOG
MONROE         CLOUDY    19  18  93 W8        30.22R FOG     WCI   9
JANESVILLE       N/A     14  12  92 CALM      30.22R FOG
$$

WIZ051-052-058>065-066-070>072-270700-
SOUTHEAST WISCONSIN

CITY           SKY/WX    TMP DP  RH WIND       PRES   REMARKS
MILWAUKEE      PTCLDY    22  15  75 NW9       30.19R WCI  12
6HR MIN TEMP:  22; 6HR MAX TEMP:  30;

WAUKESHA       CLEAR     18  16  93 NW8       30.20R FOG     WCI   7
MILWAUKEE/TIMM PTCLDY    19  16  86 W5        30.20S FOG     WCI  13
RACINE         PTCLDY    22  16  78 NW7       30.20R WCI  13
6HR MIN TEMP:  22; 6HR MAX TEMP:  29;

BURLINGTON     CLEAR     16  14  91 NW6       30.19S WCI   8
KENOSHA        CLOUDY    23  18  81 NW8       30.18R WCI  14
6HR MIN TEMP:  23; 6HR MAX TEMP:  28;

FOND DU LAC    LGT SNOW  20  16  84 W8        30.21R FOG     WCI  10
6HR MIN TEMP:  17; 6HR MAX TEMP:  21; 6HR PCP: TRACE;

SHEBOYGAN      CLOUDY    21  17  84 W8        30.19R FOG     WCI  11
6HR MIN TEMP:  16; 6HR MAX TEMP:  21;

WEST BEND      MOCLDY    19  16  86 W5        30.19S WCI  13
JUNEAU         CLOUDY    16  15  94 W3        30.22R FOG
$$

LSZ147-162-270700-
LAKE SUPERIOR

STATION/POSITION TIME  TEMP    WIND        PRES    WAVE
                       AIR SEA DIR/SP/G            HT/PER
                 (UTC) (F)     (DEG/KT/KT) (MB)    (FT/S)
DEVILS ISLAND    0500   12     340/ 19/ 22 1029.7R
PORT WING        0500   11     340/ 14/ 18 1029.1
SAXON HARBOR     0500   19     340/ 16/ 19 1026.4R
$$

LMZ867-665-643>646-270700-
LAKE MICHIGAN

STATION/POSITION TIME  TEMP    WIND        PRES    WAVE
                       AIR SEA DIR/SP/G            HT/PER
                 (UTC) (F)     (DEG/KT/KT) (MB)    (FT/S)
CHAMBERS ISLAND  0500   27     320/ 18/ 21 1021.3S
N MID LAKE BUOY  0450   28 42  330/  8/ 10 1021.7R   1/ 3
NORTHPORT PIER   0503   28     330/ 12/ 15 1021.0S
SISTER BAY       0528          350/ 13/ 16   N/A
KEWAUNEE LAKESHO 0500   21     300/  5/  9 1021.0R
SHEBOYGAN LAKESH 0500   21 36  280/  9/ 11 1023.4R
PORT WASHINGTON  0500   20     300/ 10/ 15 1023.0R
MILWAUKEE LAKESH 0500   24     310/  9/ 12   N/A
S MID LAKE BUOY  0450   32 42  330/  6/ 14 1021.7S   1/ 4
KENOSHA   LAKESH 0500   27     310/ 11/ 14 1021.7R
$$

TC  - TEMPERATURE IN CELSIUS
VSB - VISIBILITY IN STATUTE MILES
WCI - WIND CHILL INDEX
HX  - HEAT INDEX




USA.gov is the U.S. government's official web portal to all federal, state and local government web resources and services.